Location: NJAA Observatory
(40.6819°N, 74.8979°W)
Time: 02:59:50
(UTC-04:00)

Cosmos 2237 Rocket - Visible Passes

Search period start: 26 October 2014 00:00
Search period end: 04 November 2014 23:00
Orbit: 836 x 849 km, 71.0° (Epoch: 25 October)

Date Brightness Start Highest point End Pass type
(mag) Time Alt. Az. Time Alt. Az. Time Alt. Az.
26 Oct 2.3 04:47:28 71° ENE 04:47:28 71° ENE 04:53:01 10° SSE visible
26 Oct 3.7 06:29:27 14° W 06:30:47 15° W 06:33:49 10° SW visible
26 Oct 2.9 19:32:46 10° SW 19:38:19 54° WNW 19:43:52 10° NNE visible
27 Oct 3.3 04:35:01 35° SE 04:35:01 35° SE 04:38:14 10° SSE visible
27 Oct 3.7 06:16:59 15° WSW 06:16:59 15° WSW 06:19:18 10° SW visible
27 Oct 2.9 19:17:59 10° SW 19:23:33 57° WNW 19:29:08 10° NNE visible
28 Oct 4.4 04:22:28 16° SE 04:22:28 16° SE 04:23:28 10° SSE visible
28 Oct 4.1 06:04:26 11° SW 06:04:26 11° SW 06:04:46 10° SW visible
28 Oct 2.8 19:03:13 10° SW 19:08:48 59° WNW 19:14:24 10° NNE visible
28 Oct 5.1 20:53:29 10° NW 20:54:07 10° NW 20:54:44 10° NW visible
29 Oct 2.7 18:48:26 10° SW 18:54:02 62° WNW 18:59:40 10° NNE visible
29 Oct 5.0 20:38:04 10° NW 20:39:18 11° NW 20:40:32 10° NNW visible
30 Oct 2.7 18:33:39 10° SSW 18:39:17 65° WNW 18:44:55 10° NNE visible
30 Oct 5.0 20:22:52 10° WNW 20:24:30 11° NW 20:26:07 10° NNW visible
31 Oct 2.6 18:18:53 10° SSW 18:24:31 68° WNW 18:30:11 10° NNE visible
31 Oct 4.9 20:07:46 10° WNW 20:09:42 12° NW 20:11:38 10° NNW visible
01 Nov 4.9 19:52:42 10° WNW 19:54:54 12° NW 19:57:05 10° NNW visible
02 Nov 4.8 18:37:40 10° WNW 18:40:05 13° NW 18:42:31 10° NNW visible
03 Nov 4.8 18:22:39 10° WNW 18:25:18 13° NW 18:27:56 10° NNW visible
04 Nov 4.7 18:07:40 10° WNW 18:10:30 14° NW 18:13:20 10° NNW visible
